Simultaneous Nadir Overpasses (SNOs) Predictions

Prediction of SNOs between GOES-16 and LANDSAT-8 Satellite Orbit:

Table of predicted SNOs for the next 14.0 days since TLE Epoch: 7/21/2023
Index Date Time (GOES-16) GOES-16 Lat,Lon LANDSAT-8 Lat,Lon Distance(km) Time Diff (sec)
1 07/23/2023 15:02:49 -0.01, -75.22 -0.59, -72.44 315.41 80
2 07/24/2023 03:21:34 0.01, -75.21 -0.50, -77.64 275.48 80
3 07/26/2023 03:12:05 0.01, -75.23 0.16, -74.69 61.87 80
4 07/28/2023 02:59:55 0.02, -75.24 0.77, -71.73 399.16 80
5 07/28/2023 15:18:31 -0.02, -75.25 0.32, -76.89 186.16 80
6 07/30/2023 15:09:01 -0.02, -75.27 -0.30, -73.94 151.34 80
7 07/31/2023 03:27:45 0.03, -75.26 -0.78, -79.13 439.37 80
8 08/01/2023 14:56:51 -0.02, -75.29 -0.94, -70.98 489.35 80
9 08/02/2023 03:15:35 0.03, -75.29 -0.13, -76.18 101.18 80
10 08/04/2023 03:06:05 0.02, -75.31 0.46, -73.22 238.13 80
11 08/04/2023 15:24:40 -0.03, -75.33 0.62, -78.38 346.66 80
